User: anonymous   Login
Location: Oshawa
(43.9000°N, 78.8670°W)
Time: 07:34:14
(UTC-04:00)
Language:

Thor Agena Rocket - Orbit

View from above orbital plane
View from above orbital plane
View from above satellite
View from above satellite

Ground track
Ground track

The orbit data is extracted from the following two-line orbital elements,

1 00733U 64002A   18115.56498969  .00000025  00000-0  27088-4 0  9993
2 00733  99.1130 322.0054 0033743 353.6212   6.4535 14.32316177827023
Epoch (UTC): 25 April 2018 13:33:35
Eccentricity: 0.0033743
inclination: 99.1130°
perigee height: 760 km
apogee height: 808 km
right ascension of ascending node: 322.0054°
argument of perigee: 353.6212°
revolutions per day: 14.32316177
mean anomaly at epoch: 6.4535°
orbit number at epoch: 82702

The dashed part of the orbit path shows where the satellite is in the earth's shadow,  

DLR